Terug naar catalogus

DELTA 1 DEB

LostSSO
NORAD 40767·DEBRIS·🇺🇸 United States

Gelanceerd Jul 29, 1976 vanaf Vandenberg Space Force Base

Loading…

Volgende Passages (komende 24 uur)

TLE

VerouderdSource: Space-Track

Epoch: Jul 4, 2015, 19:30 UTC

1 40767U 76077GL  15185.81297419 -.00000556  00000-0 -47731-2 0  9994
2 40767 102.1090 182.6378 0113597 318.3049  40.9387 12.21396510415278

Volg DELTA 1 DEB in realtime met AllMySat

Download on the App Store